Terminal Aerodrome Forecast
Issued by NWS

Current Version | Previous Version | Graphics & Text | Print | Product List | Glossary On
Versions: 1 2 3 4 5 6 7 8 9 10 11 12 13 14 15 16 17 18 19 20 21
000
FTUS41 KILN 290221 AAA
TAFLCK
TAF AMD
KLCK 290221Z 2902/2924 25008KT P6SM SCT040 BKN080
     FM290800 VRB03KT 4SM BR SCT080 BKN250
     FM291400 04006KT P6SM SCT040=

USA.gov is the U.S. government's official web portal to all federal, state and local government web resources and services.